Weather History for Pampa, TX

Change the Weather History Date:

Monday, July 29, 2013

  Actual Average Record
Temperature  
Mean Temperature 82 °F -  
Max Temperature 95 °F 92 °F 104 °F (1986)
Min Temperature 68 °F 65 °F 59 °F (1971)
Cooling Degree Days 16    
Growing Degree Days 32 (Base 50)    
Moisture  
Dew Point 60 °F    
Average Humidity 50    
Maximum Humidity 74    
Minimum Humidity 26    
Precipitation  
Precipitation 0.00 in - - ()
Sea Level Pressure  
Sea Level Pressure 29.96 in    
Wind  
Wind Speed 17 mph (South)    
Max Wind Speed 24 mph    
Max Gust Speed 31 mph    
Visibility 10 miles    
Events Thunderstorm    
Averages and records for this station are not official NWS values.
T = Trace of Precipitation, MM = Missing Value Source: NWS Daily Summary

Daily Weather History Graph

Daily Weather History Graph

Search for Another Location

Airport:

Trip Planner

Search our weather history database for the weather conditions in past years. The results will help you decide how hot, cold, wet, or windy it might be!

Date:

Astronomy

Jul. 29, 2013 Rise Set
Actual Time 6:50 AM CDT 8:50 PM CDT
Civil Twilight 6:21 AM CDT 9:18 PM CDT
Nautical Twilight 5:47 AM CDT 9:52 PM CDT
Astronomical Twilight 5:10 AM CDT 10:29 PM CDT
Moon 12:30 AM CDT (7/29) 2:15 PM CDT (7/29)
Length of Visible Light 14h 56m
Length of Day
14h 00m
Waning Gibbous, 50% of the Moon is Illuminated
Jul 29
Waning Gibbous
Jul 29
Last Quarter
Aug 6
New
Aug 14
First Quarter
Aug 20
Full

Hourly Weather History & Observations

Time (CDT) Temp. Heat Index Dew Point Humidity Pressure Visibility Wind Dir Wind Speed Gust Speed Precip Events Conditions
12:15 AM 73.0 °F - 55.4 °F 54% 29.99 in 10.0 mi SSE 18.4 mph 26.5 mph N/A   Clear
12:35 AM 73.4 °F - 55.4 °F 53% 29.99 in 10.0 mi SSE 21.9 mph 27.6 mph N/A   Clear
12:55 AM 73.4 °F - 55.4 °F 53% 29.99 in 10.0 mi South 19.6 mph 26.5 mph N/A   Clear
1:15 AM 73.0 °F - 55.4 °F 54% 29.98 in 10.0 mi South 18.4 mph 28.8 mph N/A   Clear
1:35 AM 72.7 °F - 55.6 °F 55% 29.98 in 10.0 mi SSE 21.9 mph 27.6 mph N/A   Clear
1:55 AM 72.3 °F - 55.9 °F 56% 29.98 in 10.0 mi SSE 23.0 mph 27.6 mph N/A   Clear
2:15 AM 71.8 °F - 56.3 °F 58% 29.97 in 10.0 mi SSE 20.7 mph 25.3 mph N/A   Clear
2:55 AM 71.6 °F - 56.8 °F 60% 29.97 in 10.0 mi South 18.4 mph 24.2 mph N/A   Scattered Clouds
3:15 AM 72.0 °F - 57.2 °F 60% 29.98 in 10.0 mi SSE 18.4 mph 23.0 mph N/A   Scattered Clouds
3:35 AM 71.8 °F - 57.4 °F 60% 29.98 in 10.0 mi South 18.4 mph - N/A   Scattered Clouds
3:55 AM 71.6 °F - 57.6 °F 61% 29.97 in 10.0 mi South 17.3 mph 21.9 mph N/A   Scattered Clouds
4:15 AM 71.6 °F - 57.7 °F 62% 29.97 in 10.0 mi South 16.1 mph - N/A   Clear
4:35 AM 71.6 °F - 58.1 °F 62% 29.96 in 10.0 mi South 16.1 mph - N/A   Clear
4:55 AM 71.2 °F - 58.1 °F 63% 29.96 in 10.0 mi South 17.3 mph - N/A   Clear
5:15 AM 70.7 °F - 58.3 °F 65% 29.96 in 10.0 mi South 15.0 mph 21.9 mph N/A   Clear
5:35 AM 70.3 °F - 58.5 °F 66% 29.96 in 10.0 mi SSE 13.8 mph 18.4 mph N/A   Clear
5:55 AM 69.8 °F - 58.5 °F 67% 29.95 in 10.0 mi SSE 10.4 mph - N/A   Clear
6:15 AM 68.9 °F - 58.6 °F 70% 29.96 in 10.0 mi SSE 9.2 mph - N/A   Clear
6:35 AM 68.4 °F - 59.0 °F 72% 29.97 in 10.0 mi SSE 10.4 mph - N/A   Clear
6:55 AM 68.4 °F - 59.2 °F 72% 29.97 in 10.0 mi SSE 12.7 mph - N/A   Clear
7:15 AM 68.4 °F - 59.7 °F 74% 29.97 in 10.0 mi SSE 11.5 mph - N/A   Clear
7:35 AM 69.3 °F - 60.1 °F 72% 29.97 in 10.0 mi SSE 12.7 mph - N/A   Clear
7:55 AM 70.0 °F - 60.6 °F 72% 29.98 in 10.0 mi SSE 12.7 mph - N/A   Clear
8:15 AM 71.4 °F - 61.0 °F 70% 29.99 in 10.0 mi SSE 13.8 mph - N/A   Clear
8:35 AM 72.1 °F - 61.0 °F 68% 29.99 in 10.0 mi South 13.8 mph 18.4 mph N/A   Clear
8:55 AM 73.8 °F - 61.7 °F 66% 29.99 in 10.0 mi South 16.1 mph 21.9 mph N/A   Clear
9:15 AM 75.9 °F - 62.1 °F 62% 29.99 in 10.0 mi South 17.3 mph - N/A   Clear
9:35 AM 78.4 °F - 62.6 °F 58% 29.99 in 10.0 mi South 16.1 mph 24.2 mph N/A   Clear
9:55 AM 79.2 °F - 63.3 °F 58% 29.99 in 10.0 mi SSW 19.6 mph 23.0 mph N/A   Clear
10:15 AM 80.4 °F 82.0 °F 63.9 °F 57% 29.99 in 10.0 mi SSW 18.4 mph 26.5 mph N/A   Clear
10:35 AM 81.3 °F 82.9 °F 64.4 °F 56% 29.99 in 10.0 mi SSW 20.7 mph 25.3 mph N/A   Clear
10:55 AM 83.5 °F 84.9 °F 64.4 °F 52% 29.99 in 10.0 mi SSW 19.6 mph 25.3 mph N/A   Clear
11:15 AM 82.6 °F 83.9 °F 64.0 °F 53% 29.98 in 10.0 mi South 19.6 mph 25.3 mph N/A   Clear
11:35 AM 84.0 °F 85.4 °F 64.0 °F 51% 29.98 in 10.0 mi South 17.3 mph 24.2 mph N/A   Clear
11:55 AM 85.3 °F 86.6 °F 63.9 °F 49% 29.99 in 10.0 mi SSW 17.3 mph 24.2 mph N/A   Clear
12:15 PM 86.0 °F 87.1 °F 63.7 °F 47% 29.98 in 10.0 mi SSW 18.4 mph 26.5 mph N/A   Clear
12:35 PM 87.3 °F 88.6 °F 64.2 °F 46% 29.98 in 10.0 mi South 18.4 mph 25.3 mph N/A   Clear
12:55 PM 88.2 °F 89.3 °F 63.9 °F 44% 29.97 in 10.0 mi South 18.4 mph - N/A   Clear
1:15 PM 88.9 °F 89.7 °F 63.3 °F 42% 29.97 in 10.0 mi South 20.7 mph 27.6 mph N/A   Clear
1:35 PM 89.6 °F 90.4 °F 63.0 °F 41% 29.97 in 10.0 mi South 17.3 mph 26.5 mph N/A   Clear
1:55 PM 91.2 °F 92.2 °F 62.8 °F 39% 29.96 in 10.0 mi SSW 18.4 mph 26.5 mph N/A   Scattered Clouds
2:15 PM 93.2 °F 93.3 °F 61.0 °F 34% 29.96 in 10.0 mi SSW 17.3 mph 24.2 mph N/A   Scattered Clouds
2:35 PM 93.2 °F 92.9 °F 59.9 °F 33% 29.96 in 10.0 mi SW 20.7 mph 26.5 mph N/A   Clear
2:55 PM 91.8 °F 91.2 °F 59.7 °F 34% 29.96 in 10.0 mi SSW 21.9 mph 25.3 mph N/A   Clear
3:15 PM 93.2 °F 92.9 °F 60.4 °F 33% 29.96 in 10.0 mi SSW 15.0 mph 24.2 mph N/A   Clear
3:35 PM 93.7 °F 93.7 °F 60.8 °F 33% 29.95 in 10.0 mi South 20.7 mph 27.6 mph N/A   Clear
3:55 PM 93.7 °F 93.7 °F 60.3 °F 33% 29.94 in 10.0 mi SW 12.7 mph 26.5 mph N/A   Scattered Clouds
4:15 PM 95.0 °F 94.8 °F 60.3 °F 31% 29.93 in 10.0 mi SSW 19.6 mph 27.6 mph N/A   Clear
4:35 PM 94.8 °F 94.2 °F 59.2 °F 30% 29.92 in 10.0 mi South 19.6 mph 27.6 mph N/A   Clear
4:55 PM 95.0 °F 94.0 °F 57.7 °F 29% 29.92 in 10.0 mi SSW 24.2 mph 31.1 mph N/A   Clear
5:15 PM 95.0 °F 93.7 °F 57.2 °F 28% 29.91 in 10.0 mi SSW 18.4 mph 25.3 mph N/A   Clear
5:35 PM 94.5 °F 93.0 °F 56.3 °F 28% 29.90 in 10.0 mi SSW 20.7 mph 26.5 mph N/A   Clear
5:55 PM 93.6 °F 91.8 °F 55.9 °F 28% 29.90 in 10.0 mi SSW 20.7 mph 25.3 mph N/A   Clear
6:15 PM 94.3 °F 92.7 °F 56.1 °F 28% 29.90 in 10.0 mi SSW 19.6 mph 25.3 mph N/A   Clear
6:35 PM 94.5 °F 92.3 °F 55.0 °F 26% 29.89 in 10.0 mi SSW 18.4 mph - N/A   Clear
6:55 PM 92.3 °F 90.5 °F 55.6 °F 29% 29.88 in 10.0 mi SSW 18.4 mph 26.5 mph N/A   Clear
7:15 PM 91.2 °F 89.1 °F 54.5 °F 29% 29.88 in 10.0 mi SSW 15.0 mph - N/A   Clear
7:35 PM 89.6 °F 87.9 °F 56.5 °F 32% 29.90 in 10.0 mi SSW 11.5 mph - N/A   Clear
7:55 PM 89.1 °F 87.7 °F 57.2 °F 34% 29.91 in 10.0 mi SSW 10.4 mph - N/A   Clear
8:15 PM 90.7 °F 89.2 °F 57.2 °F 32% 29.91 in 10.0 mi SSW 11.5 mph - N/A   Clear
8:35 PM 88.7 °F 87.5 °F 57.9 °F 35% 29.92 in 10.0 mi SSW 6.9 mph - N/A   Clear
8:55 PM 85.8 °F 85.4 °F 59.4 °F 41% 29.93 in 10.0 mi South 5.8 mph - N/A   Scattered Clouds
9:15 PM 83.3 °F 83.4 °F 59.9 °F 45% 29.93 in 10.0 mi SSW 6.9 mph - N/A   Scattered Clouds
9:35 PM 82.2 °F 82.6 °F 60.1 °F 47% 29.95 in 10.0 mi South 4.6 mph - N/A   Clear
9:55 PM 80.1 °F 81.1 °F 61.2 °F 52% 29.96 in 10.0 mi SSW 4.6 mph - N/A   Scattered Clouds
10:15 PM 80.1 °F 81.1 °F 61.7 °F 53% 29.97 in 10.0 mi South 5.8 mph - N/A   Mostly Cloudy
10:35 PM 79.3 °F - 62.6 °F 56% 29.98 in 10.0 mi SSW 6.9 mph - N/A   Clear
10:55 PM 78.8 °F - 63.1 °F 59% 29.98 in 10.0 mi South 8.1 mph - N/A   Clear
11:15 PM 79.9 °F - 63.1 °F 56% 29.98 in 10.0 mi South 11.5 mph 18.4 mph N/A Thunderstorm Clear
11:35 PM 78.6 °F - 63.5 °F 60% 29.98 in 10.0 mi Calm Calm - N/A   Clear
11:55 PM 77.2 °F - 63.7 °F 63% 30.00 in 10.0 mi Calm Calm - N/A   Clear